Location: Bennemühlen
(52.5740°N, 9.7135°E)
Time: 06:12:37
(UTC+00:00)

Transit 2A Rocket - All Passes

Search period start: 18 February 2026 00:00
Search period end: 28 February 2026 00:00
Orbit: 582 x 901 km, 66.7° (Epoch: 17 February)

Date Brightness Start Highest point End Pass type
(mag) Time Alt. Az. Time Alt. Az. Time Alt. Az.
18 Feb - 00:48:02 10° NW 00:52:49 31° WSW 00:57:14 10° S night (unlit)
18 Feb - 13:45:58 10° SE 13:48:42 13° ESE 13:51:25 10° ENE daylight
18 Feb - 15:24:08 10° SSW 15:30:03 60° ESE 15:35:54 10° NE daylight
18 Feb - 17:07:02 10° WSW 17:12:46 43° NW 17:18:22 10° NE visible
18 Feb - 18:52:05 10° WNW 18:56:39 22° NNW 19:01:03 10° NE visible
18 Feb - 20:36:35 10° NW 20:41:02 22° NNE 20:45:16 10° ENE visible
18 Feb - 22:19:26 10° NW 22:24:54 44° NE 22:29:55 10° ESE visible
19 Feb - 00:02:04 10° NW 00:07:27 50° WSW 00:12:20 10° SSE visible
19 Feb - 14:39:04 10° S 14:44:35 39° ESE 14:50:03 10° NE daylight
19 Feb - 16:20:55 10° WSW 16:26:53 59° NW 16:32:44 10° NE daylight
19 Feb - 18:05:33 10° WNW 18:10:28 25° NNW 18:15:12 10° NE visible
19 Feb - 19:50:32 10° NW 19:54:48 20° N 19:58:53 10° NE visible
19 Feb - 21:33:46 10° NNW 21:38:56 33° NNE 21:43:42 10° E visible
19 Feb - 23:16:17 10° NW 23:21:56 79° SW 23:27:01 10° SSE visible
20 Feb - 01:00:10 10° WNW 01:03:21 16° WSW 01:06:23 10° SW night (unlit)
20 Feb - 13:54:28 10° SSE 13:59:15 25° ESE 14:03:59 10° ENE daylight
20 Feb - 15:35:04 10° SW 15:41:09 84° NW 15:47:06 10° NE daylight
20 Feb - 17:19:03 10° W 17:24:21 31° NNW 17:29:29 10° NNE visible
20 Feb - 19:04:16 10° NW 19:08:32 20° N 19:12:38 10° NE visible
20 Feb - 20:48:02 10° NW 20:52:50 26° NNE 20:57:21 10° E visible
20 Feb - 22:30:36 10° NW 22:36:15 70° NE 22:41:23 10° SE visible
21 Feb - 00:13:41 10° NW 00:18:10 26° WSW 00:22:20 10° SSW night (unlit)
21 Feb - 13:10:39 10° SE 13:14:01 16° ESE 13:17:24 10° ENE daylight
21 Feb - 14:49:31 10° SSW 14:55:30 67° ESE 15:01:24 10° NE daylight
21 Feb - 16:32:42 10° WSW 16:38:20 39° NW 16:43:49 10° NE daylight
21 Feb - 18:17:50 10° WNW 18:22:18 21° N 18:26:35 10° NE visible
21 Feb - 20:02:11 10° NW 20:06:40 22° NNE 20:10:55 10° ENE visible
21 Feb - 21:44:57 10° NW 21:50:26 48° NE 21:55:28 10° ESE visible
21 Feb - 23:27:38 10° NW 23:32:51 43° WSW 23:37:35 10° S visible
22 Feb - 14:04:19 10° S 14:10:00 44° ESE 14:15:36 10° NE daylight
22 Feb - 15:46:31 10° WSW 15:52:26 53° NW 15:58:11 10° NE daylight
22 Feb - 17:31:18 10° WNW 17:36:05 24° NNW 17:40:42 10° NE visible
22 Feb - 19:16:10 10° NW 19:20:27 20° N 19:24:31 10° NE visible
22 Feb - 20:59:16 10° NNW 21:04:30 35° NNE 21:09:19 10° E visible
22 Feb - 22:41:49 10° NW 22:47:22 69° SW 22:52:23 10° SSE visible
23 Feb - 00:26:09 10° WNW 00:28:38 13° WSW 00:31:03 10° SW night (unlit)
23 Feb - 13:19:34 10° SSE 13:24:37 28° ESE 13:29:37 10° NE daylight
23 Feb - 15:00:35 10° SW 15:06:38 76° NW 15:12:33 10° NE daylight
23 Feb - 16:44:47 10° W 16:49:57 29° NNW 16:54:56 10° NNE daylight
23 Feb - 18:29:58 10° NW 18:34:11 20° N 18:38:14 10° NE visible
23 Feb - 20:13:34 10° NNW 20:18:26 28° NNE 20:23:00 10° E visible
23 Feb - 21:56:06 10° NW 22:01:44 78° NE 22:06:50 10° SE visible
23 Feb - 23:39:21 10° WNW 23:43:30 23° WSW 23:47:22 10° SSW visible
24 Feb - 12:35:28 10° SE 12:39:21 18° ESE 12:43:14 10° ENE daylight
24 Feb - 14:14:56 10° SSW 14:20:58 76° SE 14:26:53 10° NE daylight
24 Feb - 15:58:22 10° W 16:03:54 36° NNW 16:09:15 10° NNE daylight
24 Feb - 17:43:35 10° NW 17:47:56 21° N 17:52:07 10° NE visible
24 Feb - 19:27:45 10° NW 19:32:18 23° NNE 19:36:34 10° ENE visible
24 Feb - 21:10:26 10° NW 21:15:58 53° NE 21:20:59 10° ESE visible
24 Feb - 22:53:13 10° NW 22:58:13 37° WSW 23:02:48 10° S visible
25 Feb - 11:53:14 10° ESE 11:54:14 10° E 11:55:14 10° E daylight
25 Feb - 13:29:37 10° SSW 13:35:25 50° ESE 13:41:07 10° NE daylight
25 Feb - 15:12:08 10° WSW 15:17:58 48° NW 15:23:38 10° NE daylight
25 Feb - 16:57:04 10° WNW 17:01:42 23° NNW 17:06:11 10° NE daylight
25 Feb - 18:41:47 10° NW 18:46:04 21° N 18:50:09 10° ENE visible
25 Feb - 20:24:46 10° NW 20:30:03 38° NE 20:34:54 10° ESE visible
25 Feb - 22:07:20 10° NW 22:12:47 60° WSW 22:17:42 10° SSE visible
25 Feb - 23:52:27 10° W 23:53:55 11° W 23:55:20 10° WSW night (unlit)
26 Feb - 12:44:43 10° S 12:50:00 32° ESE 12:55:11 10° NE daylight
26 Feb - 14:26:06 10° SW 14:32:08 68° NW 14:38:00 10° NE daylight
26 Feb - 16:10:31 10° W 16:15:33 27° NNW 16:20:24 10° NNE daylight
26 Feb - 17:55:39 10° NW 17:59:50 20° N 18:03:49 10° NE visible
26 Feb - 19:39:04 10° NNW 19:44:01 29° NNE 19:48:37 10° E visible
26 Feb - 21:21:35 10° NW 21:27:12 87° NE 21:32:15 10° SE visible
26 Feb - 23:05:04 10° WNW 23:08:49 19° WSW 23:12:20 10° SSW visible
27 Feb - 12:00:24 10° SSE 12:04:42 21° ESE 12:08:58 10° ENE daylight
27 Feb - 13:40:22 10° SW 13:46:26 84° SE 13:52:20 10° NE daylight
27 Feb - 15:24:03 10° W 15:29:29 34° NNW 15:34:42 10° NNE daylight
27 Feb - 17:09:18 10° NW 17:13:34 20° N 17:17:39 10° NE daylight
27 Feb - 18:53:18 10° NW 18:57:54 24° NNE 19:02:13 10° ENE visible
27 Feb - 20:35:54 10° NW 20:41:27 59° NE 20:46:29 10° ESE visible
27 Feb - 22:18:48 10° NW 22:23:34 32° WSW 22:27:57 10° S visible
